Terminal Aerodrome Forecast
Issued by NWS

Home | Current Version | Previous Version | Text Only | Print | Product List | Glossary On
Versions: 1 2 3 4 5 6 7 8 9 10 11 12 13 14 15 16 17 18 19 20
000
FTAK31 PAJN 270500
TAFAKT
TAF
PAKT 270526Z 2706/2806 33010KT P6SM SCT100
     FM271200 32007KT P6SM SCT015 BKN050
     FM271800 33012KT P6SM SCT015 BKN050
     FM280000 32010KT P6SM FEW015 BKN080
      AMD LTD TO CLD VIS AND WIND 2706/2715=

USA.gov is the U.S. government's official web portal to all federal, state and local government web resources and services.